| time (UTC) | temp F | wind direction | speed MPH | gust MPH | rain 1hr in | rain 24hr in | rain mn in | humidity % | barometer mb |
| 20260506083057 | 50 | 111 | 0.0 | 0.0 | 0.00 | 0.00 | 0.00 | 90 | 1002.4 |
| 20260506081603 | 51 | 111 | 0.0 | 0.0 | 0.00 | 0.00 | 0.00 | 90 | 1002.4 |
| 20260506073047 | 52 | 111 | 0.0 | 0.0 | 0.00 | 0.00 | 0.00 | 90 | 1002.4 |
| 20260506071544 | 53 | 111 | 0.0 | 0.0 | 0.00 | 0.00 | 0.00 | 90 | 1002.4 |
| 20260506061543 | 56 | 111 | 0.0 | 0.0 | 0.00 | 0.00 | 0.00 | 85 | 1002.4 |
| 20260506044542 | 60 | 110 | 0.0 | 0.0 | 0.00 | 0.00 | 0.00 | 78 | 1002.4 |
| 20260506043037 | 61 | 110 | 0.0 | 0.0 | 0.00 | 0.00 | 0.00 | 78 | 1002.4 |
| 20260506041552 | 62 | 110 | 0.0 | 0.0 | 0.00 | 0.00 | 0.00 | 80 | 1002.4 |
| 20260506040038 | 63 | 110 | 0.0 | 0.0 | 0.00 | 0.00 | 0.00 | 79 | 1002.4 |
| 20260506034548 | 63 | 110 | 0.0 | 0.0 | 0.00 | 0.00 | 0.00 | 76 | 1002.4 |
| 20260506033038 | 63 | 110 | 0.0 | 0.0 | 0.00 | 0.00 | 0.00 | 76 | 1002.4 |
| 20260506031535 | 64 | 110 | 0.0 | 0.0 | 0.00 | 0.00 | 0.00 | 76 | 1002.4 |
| 20260506030037 | 64 | 110 | 0.0 | 0.0 | 0.00 | 0.00 | 0.00 | 75 | 1002.4 |
| 20260506024535 | 64 | 110 | 0.0 | 0.0 | 0.00 | 0.00 | 0.00 | 75 | 1002.4 |
| 20260506023034 | 64 | 84 | 0.0 | 0.0 | 0.00 | 0.00 | 0.00 | 75 | 1002.4 |
| 20260506021533 | 65 | 83 | 0.0 | 0.0 | 0.00 | 0.00 | 0.00 | 74 | 1002.4 |
| 20260506020033 | 65 | 83 | 0.0 | 0.0 | 0.00 | 0.00 | 0.00 | 73 | 1002.4 |
| 20260506014533 | 65 | 83 | 0.0 | 0.0 | 0.00 | 0.00 | 0.00 | 73 | 1002.4 |
| 20260506013047 | 65 | 39 | 0.0 | 3.0 | 0.00 | 0.00 | 0.00 | 74 | 1002.4 |
| 20260506011536 | 65 | 164 | 0.0 | 3.0 | 0.00 | 0.00 | 0.00 | 73 | 1002.4 |
| 20260506010034 | 65 | 98 | 0.0 | 1.0 | 0.00 | 0.00 | 0.00 | 74 | 1002.4 |
| 20260506004531 | 65 | 35 | 0.0 | 0.0 | 0.00 | 0.00 | 0.00 | 75 | 1002.4 |
| 20260506003030 | 65 | 34 | 0.0 | 5.0 | 0.00 | 0.00 | 0.00 | 75 | 1002.4 |
| 20260506001529 | 65 | 165 | 0.0 | 4.0 | 0.00 | 0.00 | 0.00 | 73 | 1002.4 |
| 20260506000029 | 65 | 17 | 1.0 | 7.0 | 0.00 | 0.00 | 0.00 | 73 | 1002.4 |
| 20260505234529 | 67 | 113 | 0.0 | 5.0 | 0.00 | 0.00 | 0.00 | 71 | 1002.4 |
| 20260505233029 | 66 | 117 | 0.0 | 3.0 | 0.00 | 0.00 | 0.00 | 70 | 1002.4 |
| 20260505231528 | 66 | 112 | 0.0 | 3.0 | 0.00 | 0.00 | 0.00 | 70 | 1002.4 |
| 20260505230026 | 64 | 30 | 1.0 | 4.0 | 0.00 | 0.00 | 0.00 | 74 | 1002.4 |
| 20260505224526 | 65 | 56 | 0.0 | 1.0 | 0.00 | 0.00 | 0.00 | 73 | 1002.4 |
| 20260505223031 | 66 | 135 | 1.0 | 4.0 | 0.00 | 0.00 | 0.00 | 70 | 1002.4 |
| 20260505221520 | 63 | 46 | 0.0 | 0.0 | 0.00 | 0.00 | 0.00 | 75 | 1002.4 |
| 20260505220030 | 63 | 14 | 0.0 | 3.0 | 0.00 | 0.00 | 0.00 | 77 | 1002.4 |
| 20260505214521 | 62 | 14 | 0.0 | 0.0 | 0.00 | 0.00 | 0.00 | 77 | 1002.4 |
| 20260505213016 | 62 | 21 | 0.0 | 2.0 | 0.00 | 0.00 | 0.00 | 77 | 1002.4 |
| 20260505211515 | 62 | 21 | 0.0 | 3.0 | 0.00 | 0.00 | 0.00 | 78 | 1002.4 |
| 20260505210013 | 62 | 79 | 0.0 | 2.0 | 0.00 | 0.00 | 0.00 | 77 | 1002.4 |
| 20260505204512 | 62 | 43 | 0.0 | 0.0 | 0.00 | 0.00 | 0.00 | 76 | 1002.4 |
| 20260505203011 | 61 | 132 | 0.0 | 0.0 | 0.00 | 0.00 | 0.00 | 77 | 1002.4 |
| 20260505201510 | 60 | 76 | 0.0 | 1.0 | 0.00 | 0.00 | 0.00 | 77 | 1002.4 |
| 20260505200015 | 60 | 82 | 0.0 | 0.0 | 0.00 | 0.00 | 0.00 | 79 | 1002.4 |
| 20260505194508 | 61 | 100 | 0.0 | 0.0 | 0.00 | 0.00 | 0.00 | 75 | 1002.4 |
| 20260505193006 | 60 | 101 | 0.0 | 0.0 | 0.00 | 0.00 | 0.00 | 77 | 1002.4 |
| 20260505191515 | 61 | 101 | 0.0 | 0.0 | 0.00 | 0.00 | 0.00 | 75 | 1002.4 |
| 20260505190007 | 60 | 98 | 0.0 | 0.0 | 0.00 | 0.00 | 0.00 | 76 | 1002.4 |
| 20260505184505 | 60 | 98 | 0.0 | 0.0 | 0.00 | 0.00 | 0.00 | 78 | 1002.4 |
| 20260505183004 | 59 | 98 | 0.0 | 2.0 | 0.00 | 0.00 | 0.00 | 78 | 1002.4 |
| 20260505181503 | 60 | 155 | 0.0 | 0.0 | 0.00 | 0.00 | 0.00 | 75 | 1002.4 |
| 20260505180002 | 60 | 166 | 0.0 | 0.0 | 0.00 | 0.00 | 0.00 | 74 | 1002.4 |
| 20260505174606 | 59 | 173 | 0.0 | 5.0 | 0.00 | 0.00 | 0.00 | 75 | 1002.4 |
| 20260505173100 | 59 | 180 | 0.0 | 0.0 | 0.00 | 0.00 | 0.00 | 74 | 1002.4 |
| 20260505171557 | 59 | 159 | 0.0 | 2.0 | 0.00 | 0.00 | 0.00 | 76 | 1002.4 |
| 20260505170054 | 59 | 222 | 0.0 | 3.0 | 0.00 | 0.00 | 0.00 | 76 | 1002.4 |
| 20260505164555 | 58 | 198 | 0.0 | 3.0 | 0.00 | 0.00 | 0.00 | 77 | 1002.4 |
| 20260505163054 | 58 | 255 | 0.0 | 3.0 | 0.00 | 0.00 | 0.00 | 78 | 1002.4 |
| 20260505161554 | 58 | 195 | 0.0 | 3.0 | 0.00 | 0.00 | 0.00 | 78 | 1002.4 |
| 20260505153045 | 56 | 200 | 0.0 | 0.0 | 0.00 | 0.00 | 0.00 | 83 | 1002.4 |
| 20260505151543 | 56 | 200 | 0.0 | 0.0 | 0.00 | 0.00 | 0.00 | 83 | 1002.4 |
| 20260505124536 | 54 | 257 | 0.0 | 0.0 | 0.00 | 0.00 | 0.00 | 85 | 1002.4 |
| 20260505123036 | 54 | 257 | 0.0 | 0.0 | 0.00 | 0.00 | 0.00 | 86 | 1002.4 |
| 20260505121538 | 54 | 257 | 0.0 | 0.0 | 0.00 | 0.00 | 0.00 | 87 | 1002.4 |
| 20260505120034 | 54 | 257 | 0.0 | 0.0 | 0.00 | 0.00 | 0.00 | 87 | 1002.4 |
| 20260505114533 | 55 | 257 | 0.0 | 0.0 | 0.00 | 0.00 | 0.00 | 87 | 1002.4 |
| 20260505113035 | 55 | 257 | 0.0 | 0.0 | 0.00 | 0.00 | 0.00 | 86 | 1002.4 |
| 20260505111532 | 55 | 257 | 0.0 | 0.0 | 0.00 | 0.00 | 0.00 | 85 | 1002.4 |
| 20260505101534 | 55 | 217 | 0.0 | 0.0 | 0.00 | 0.00 | 0.00 | 83 | 1002.4 |
| 20260505100033 | 55 | 222 | 0.0 | 0.0 | 0.00 | 0.00 | 0.00 | 83 | 1002.4 |
| 20260505094528 | 55 | 223 | 0.0 | 0.0 | 0.00 | 0.00 | 0.00 | 83 | 1002.4 |
| 20260505093028 | 55 | 265 | 0.0 | 0.0 | 0.00 | 0.00 | 0.00 | 84 | 1002.4 |
| 20260505091533 | 55 | 267 | 0.0 | 3.0 | 0.00 | 0.00 | 0.00 | 84 | 1002.4 |
| 20260505090038 | 55 | 217 | 0.0 | 2.0 | 0.00 | 0.00 | 0.00 | 84 | 1002.4 |
| 20260505084526 | 55 | 213 | 0.0 | 4.0 | 0.00 | 0.00 | 0.00 | 84 | 1002.4 |